Flag for Austria Weather past 2 weeks in Bruck an der Mur, Styria, Austria

Now
77 °F

Broken clouds.


Feels Like: 78 °F
Forecast: 58 / 80 °F
Wind: 3 mph from Southeast

Location: Zeltweg

Current Time: Jun 30, 2015 at 1:00:23 PM

Latest Report: Jun 30, 2015 at 12:20 PM


Visibility: 25 mi

Pressure: 30.21 "Hg

Humidity: 36%

Dew point: 48 °F

Location of Bruck an der MurLocation

Historic Weather in Bruck an der Mur — Graph

°F

Bruck an der Mur temperature yesterday

Maximum temperature yesterday: 75 °F (at 5:50 PM)
Minimum temperature yesterday: 46 °F (at 4:50 AM)
Average temperature yesterday: 63 °F

Past Weeks' High & Low Weather Summary

 TemperatureHumidityPressure
High75 °F (Jun 29, 5:50 PM)100% (Jun 15, 2:20 PM)30.30 "Hg (Jun 15, 2:20 PM)
Low41 °F (Jun 25, 5:50 AM)31% (Jun 25, 2:20 PM)29.80 "Hg (Jun 23, 4:50 AM)
Average60 °F66%30.07 "Hg
* Reported Jun 15 11:20 AM — Jun 30 11:50 AM, Bruck an der Mur, Weather by CustomWeather, © 2015

Note: Actual official high and low records may vary slightly from our data, if they occured in-between our weather recording intervals... More about our weather records

Advertising

Bruck an der Mur weather history for previous 24 hours

 ConditionsComfort  
Time TempWeatherWind HumidityBarometerVisibility
11:50 AM
Tue, Jun 30
73 °FBroken clouds.5 mph38%30.21 "Hg25 mi
11:20 AM72 °FBroken clouds.2 mph53%30.21 "Hg25 mi
10:50 AM70 °FBroken clouds.2 mph53%30.21 "Hg25 mi
10:20 AM68 °FBroken clouds.1 mph64%30.21 "Hg25 mi
9:50 AM64 °FBroken clouds.2 mph68%30.24 "Hg25 mi
9:20 AM63 °FBroken clouds.2 mph77%30.24 "Hg25 mi
8:50 AM61 °FBroken clouds.1 mph77%30.24 "Hg25 mi
8:20 AM57 °FPartly sunny.1 mph82%30.24 "Hg25 mi
7:50 AM57 °FPartly sunny.2 mph82%30.24 "Hg25 mi
7:20 AM57 °FPartly sunny.1 mph88%30.24 "Hg25 mi
6:50 AM55 °FBroken clouds.1 mph88%30.24 "Hg19 mi
5:50 AM52 °FPassing clouds.1 mph88%30.24 "Hg12 mi
10:50 PM
Mon, Jun 29
61 °FPassing clouds.2 mph77%30.21 "Hg6 mi
9:50 PM64 °FScattered clouds.3 mph64%30.21 "Hg12 mi
8:50 PM68 °FScattered clouds.7 mph53%30.18 "Hg19 mi
7:50 PM72 °FScattered clouds.6 mph50%30.15 "Hg25 mi
6:50 PM72 °FPartly sunny.2 mph47%30.15 "Hg25 mi
5:50 PM75 °FScattered clouds.2 mph41%30.15 "Hg25 mi
4:50 PM73 °FPartly sunny.2 mph44%30.15 "Hg25 mi
4:20 PM72 °FScattered clouds.5 mph47%30.18 "Hg25 mi
3:50 PM73 °FScattered clouds.6 mph41%30.18 "Hg25 mi
3:20 PM72 °FBroken clouds.2 mph41%30.18 "Hg25 mi
2:50 PM70 °FBroken clouds.2 mph50%30.18 "Hg25 mi
2:20 PM70 °FBroken clouds.2 mph46%30.18 "Hg25 mi
1:50 PM70 °FBroken clouds.3 mph57%30.21 "Hg25 mi
1:20 PM66 °FPartly sunny.2 mph60%30.21 "Hg25 mi
Weather by CustomWeather, © 2015

See weather overviewHow to use our weather pages